Kiruna, Sweden

12:25 AM CET on November 25, 2017 (GMT +0100)
Kiruna

Weather History for ESNQ - January, 2014

Change the Weather History Date:

Tuesday, January 7, 2014

  Actual Average Record
Temperature  
Mean Temperature 24 °F -  
Max Temperature 26 °F - - ()
Min Temperature 23 °F - - ()
Degree Days  
Heating Degree Days 40    
Moisture  
Dew Point 26 °F    
Average Humidity 99    
Maximum Humidity 100    
Minimum Humidity 93    
Precipitation  
Precipitation 0.00 in - - ()
Sea Level Pressure  
Sea Level Pressure 29.37 in    
Wind  
Wind Speed 2 mph ()    
Max Wind Speed 5 mph    
Max Gust Speed -    
Visibility 2.6 miles    
Events Snow    
T = Trace of Precipitation, MM = Missing Value Source: Averaged Metar Reports

Daily Weather History Graph

Daily Weather History Graph

Search for Another Location

Airport or City:

Trip Planner

Search our weather history database for the weather conditions in past years. The results will help you decide how hot, cold, wet, or windy it might be!

Date:

Astronomy

Jan. 07, 2014 Rise Set
Actual Time 10:45 AM CET 12:44 PM CET
Civil Twilight 8:45 AM CET 2:44 PM CET
Nautical Twilight 7:22 AM CET 4:07 PM CET
Astronomical Twilight 6:13 AM CET 5:16 PM CET
Moon 10:05 AM CET (1/7) No Moon Set
Length of Visible Light 5h 58m
Length of Day
1h 58m
Waxing Crescent, 42% of the Moon is Illuminated
Jan 7
Waxing Crescent
Jan 8
First Quarter
Jan 16
Full
Jan 24
Last Quarter
Jan 30
New

Hourly Weather History & Observations

Time (CET) Temp. Windchill Dew Point Humidity Pressure Visibility Wind Dir Wind Speed Gust Speed Precip Events Conditions
12:20 AM 23.0 °F - 21.2 °F 93% 29.50 in 1.2 mi NE 2.3 mph - N/A Snow Light Snow
12:50 AM 23.0 °F - 21.2 °F 93% 29.50 in 0.6 mi NNE 1.2 mph - N/A Snow Light Snow
1:20 AM 23.0 °F 18.4 °F 23.0 °F 100% 29.47 in 0.8 mi NE 3.5 mph - N/A Snow Light Snow
1:50 AM 23.0 °F 18.4 °F 23.0 °F 100% 29.47 in - NNE 3.5 mph - N/A Snow Light Snow
2:20 AM 23.0 °F - 23.0 °F 100% 29.47 in 0.8 mi NNE 2.3 mph - N/A Snow Light Snow
2:50 AM 24.8 °F - 24.8 °F 100% 29.47 in 0.7 mi NE 2.3 mph - N/A Snow Light Snow
3:20 AM 24.8 °F - 24.8 °F 100% 29.44 in 1.1 mi ENE 2.3 mph - N/A Snow Light Snow
3:50 AM 24.8 °F 20.5 °F 24.8 °F 100% 29.44 in - ENE 3.5 mph - N/A Snow Light Snow
4:20 AM 26.6 °F 22.6 °F 26.6 °F 100% 29.42 in 0.7 mi East 3.5 mph - N/A Snow Light Snow
4:50 AM 26.6 °F 22.6 °F 26.6 °F 100% 29.42 in 0.9 mi East 3.5 mph - N/A Snow Light Snow
5:20 AM 26.6 °F 22.6 °F 26.6 °F 100% 29.39 in 1.1 mi East 3.5 mph - N/A Snow Light Snow
5:50 AM 26.6 °F 21.2 °F 26.6 °F 100% 29.39 in 1.7 mi East 4.6 mph - N/A Snow Light Snow
6:20 AM 26.6 °F 22.6 °F 26.6 °F 100% 29.39 in 1.2 mi East 3.5 mph - N/A Snow Light Snow
6:50 AM 26.6 °F 21.2 °F 26.6 °F 100% 29.39 in 0.9 mi East 4.6 mph - N/A Snow Light Snow
7:20 AM 26.6 °F 21.2 °F 26.6 °F 100% 29.39 in - East 4.6 mph - N/A Snow Light Snow
7:50 AM 26.6 °F 21.2 °F 26.6 °F 100% 29.36 in 1.5 mi East 4.6 mph - N/A Snow Light Snow
8:20 AM 26.6 °F 22.6 °F 26.6 °F 100% 29.36 in - East 3.5 mph - N/A Snow Light Snow
8:50 AM 26.6 °F 21.2 °F 26.6 °F 100% 29.36 in 1.6 mi East 4.6 mph - N/A Snow Light Snow
9:20 AM 26.6 °F 22.6 °F 26.6 °F 100% 29.36 in 3.1 mi East 3.5 mph - N/A Snow Light Snow
9:50 AM 26.6 °F - 26.6 °F 100% 29.36 in 0.9 mi Variable 2.3 mph - N/A Snow Light Snow
10:20 AM 26.6 °F - 26.6 °F 100% 29.36 in 1.1 mi NE 2.3 mph - N/A Snow Light Snow
10:50 AM 26.6 °F 22.6 °F 26.6 °F 100% 29.36 in 4.3 mi NNE 3.5 mph - N/A Snow Light Snow
11:20 AM 26.6 °F - 26.6 °F 100% 29.36 in 1.8 mi ENE 2.3 mph - N/A Snow Light Snow
11:50 AM 26.6 °F - 26.6 °F 100% 29.36 in 1.4 mi ESE 2.3 mph - N/A Snow Light Snow
12:20 PM 26.6 °F - 26.6 °F 100% 29.36 in 1.7 mi North 2.3 mph - N/A Snow Light Snow
12:50 PM 26.6 °F - 26.6 °F 100% 29.36 in - Variable 2.3 mph - N/A Snow Light Snow
1:20 PM 26.6 °F - 24.8 °F 93% 29.36 in 4.3 mi Variable 2.3 mph - N/A Snow Light Snow
1:50 PM 26.6 °F - 24.8 °F 93% 29.36 in - ENE 2.3 mph - N/A Snow Snow
2:20 PM 26.6 °F - 24.8 °F 93% 29.33 in 3.7 mi North 1.2 mph - N/A Snow Light Snow
2:50 PM 26.6 °F - 24.8 °F 93% 29.33 in 4.3 mi North 2.3 mph - N/A Snow Light Snow
3:20 PM 26.6 °F - 24.8 °F 93% 29.33 in 5.0 mi Variable 2.3 mph - N/A   Overcast
3:50 PM 26.6 °F 22.6 °F 26.6 °F 100% 29.33 in 5.0 mi ENE 3.5 mph - N/A Snow Light Snow
4:20 PM 24.8 °F - 24.8 °F 100% 29.33 in 3.1 mi NNE 2.3 mph - N/A Snow Light Snow
4:50 PM 26.6 °F - 26.6 °F 100% 29.33 in 3.1 mi Variable 2.3 mph - N/A Snow Light Snow
5:20 PM 26.6 °F - 26.6 °F 100% 29.33 in 3.1 mi NNE 2.3 mph - N/A Snow Light Snow
5:50 PM 26.6 °F - 26.6 °F 100% 29.33 in 4.3 mi NNE 1.2 mph - N/A Snow Light Snow
6:20 PM 26.6 °F - 26.6 °F 100% 29.33 in 3.7 mi ENE 2.3 mph - N/A Snow Light Snow
6:50 PM 26.6 °F - 26.6 °F 100% 29.33 in 5.0 mi NE 2.3 mph - N/A Snow Light Snow
7:20 PM 26.6 °F - 26.6 °F 100% 29.33 in 3.7 mi Calm Calm - N/A Snow Light Snow
7:50 PM 26.6 °F - 26.6 °F 100% 29.33 in 3.1 mi Calm Calm - N/A   Overcast
8:20 PM 26.6 °F - 26.6 °F 100% 29.33 in 3.1 mi Calm Calm - N/A   Overcast
8:50 PM 26.6 °F - 26.6 °F 100% 29.33 in 3.1 mi Calm Calm - N/A   Overcast
9:20 PM 24.8 °F - 24.8 °F 100% 29.33 in 3.1 mi Calm Calm - N/A   Overcast
9:50 PM 24.8 °F - 24.8 °F 100% 29.33 in 3.7 mi East 1.2 mph - N/A   Overcast
10:20 PM 24.8 °F - 24.8 °F 100% 29.33 in 1.2 mi ENE 2.3 mph - N/A   Overcast
10:50 PM 24.8 °F - 24.8 °F 100% 29.33 in 1.2 mi NE 2.3 mph - N/A   Overcast
11:20 PM 24.8 °F - 24.8 °F 100% 29.33 in 5.6 mi ENE 2.3 mph - N/A   Overcast
11:50 PM 24.8 °F - 24.8 °F 100% 29.33 in 6.2 mi ENE 2.3 mph - N/A   Overcast